Flag for U.S.A. Weather past 2 weeks in Warren, Michigan, U.S.A.

Now
27 °F

Clear.


Feels Like: 27 °F
Forecast: 22 / 43 °F
Wind: No wind

Location: Detroit City Airport

Current Time: Mar 29, 2015 at 12:54:28 AM

Latest Report: Mar 28, 2015 at 11:53 PM


Visibility: 10 mi

Pressure: 30.33 "Hg

Humidity: 61%

Dew point: 15 °F

Location of WarrenLocation

Historic Weather in Warren — Graph

°F

Warren temperature yesterday

Maximum temperature yesterday: 38 °F (at 5:53 PM)
Minimum temperature yesterday: 18 °F (at 12:53 AM)
Average temperature yesterday: 27 °F

Past Weeks' High & Low Weather Summary

 TemperatureHumidityPressure
High62 °F (Mar 16, 2:53 PM)93% (Mar 14, 6:53 AM)30.40 "Hg (Mar 14, 6:53 AM)
Low18 °F (Mar 27, 11:53 PM)22% (Mar 17, 1:53 PM)29.70 "Hg (Mar 17, 12:53 AM)
Average38 °F56%30.12 "Hg
* Reported Mar 13 11:53 PM — Mar 28 11:53 PM, Warren, Weather by CustomWeather, © 2015

Note: Actual official high and low records may vary slightly from our data, if they occured in-between our weather recording intervals... More about our weather records

Advertising

Warren weather history for previous 24 hours

 ConditionsComfort  
Time TempWeatherWind HumidityBarometerVisibility
11:53 PM
Sat, Mar 28
27 °FClear.No wind61%30.33 "Hg10 mi
10:53 PM28 °FClear.3 mph58%30.33 "Hg10 mi
9:53 PM28 °FClear.5 mph58%30.32 "Hg10 mi
8:53 PM30 °FClear.6 mph56%30.32 "Hg10 mi
7:53 PM32 °FSunny.8 mph50%30.30 "Hg10 mi
6:53 PM35 °FSunny.6 mph36%30.29 "Hg10 mi
5:53 PM38 °FPassing clouds.7 mph33%30.27 "Hg10 mi
4:53 PM37 °FSunny.8 mph30%30.27 "Hg10 mi
3:53 PM37 °FPassing clouds.9 mph31%30.29 "Hg10 mi
2:53 PM35 °FSunny.6 mph34%30.30 "Hg10 mi
1:53 PM34 °FScattered clouds.8 mph37%30.31 "Hg10 mi
12:53 PM30 °FScattered clouds.12 mph43%30.32 "Hg10 mi
11:53 AM29 °FScattered clouds.9 mph43%30.32 "Hg10 mi
10:53 AM26 °FScattered clouds.12 mph46%30.31 "Hg10 mi
9:53 AM24 °FSunny.9 mph50%30.31 "Hg10 mi
8:53 AM23 °FMostly cloudy.10 mph57%30.29 "Hg10 mi
8:00 AM20 °FLight snow. Mostly cloudy.7 mph68%30.24 "Hg2 mi
6:53 AM20 °FOvercast.6 mph57%30.23 "Hg10 mi
5:53 AM20 °FOvercast.6 mph55%30.20 "Hg10 mi
4:53 AM20 °FOvercast.8 mph55%30.19 "Hg10 mi
3:53 AM19 °FOvercast.8 mph57%30.19 "Hg10 mi
2:53 AM20 °FOvercast.9 mph55%30.19 "Hg10 mi
1:53 AM19 °FOvercast.6 mph57%30.19 "Hg10 mi
12:53 AM18 °FClear.6 mph59%30.19 "Hg10 mi
Weather by CustomWeather, © 2015

See weather overviewHow to use our weather pages